DW6885 Weather Reports


Display with metric or nautical units.
time (UTC)temp
F
wind
direction
speed
MPH
gust
MPH
rain 1hr
in
rain 24hr
in
rain mn
in
humidity
%
barometer
mb
20180525051534 48 198 0.0 0.0 0.00 0.00 0.00 93 1015.7
20180525045939 48 198 0.0 0.0 0.00 0.00 0.00 93 1016.0
20180525044213 49 198 0.0 0.0 0.00 0.00 0.00 93 1016.0
20180525042606 48 198 0.0 0.0 0.00 0.00 0.00 90 1016.0
20180525040943 49 198 0.0 0.0 0.00 0.00 0.00 89 1016.2
20180525035309 49 198 0.0 0.0 0.00 0.00 0.00 89 1016.2
20180525033629 50 198 0.0 0.0 0.00 0.00 0.00 88 1016.4
20180525032024 50 198 0.0 0.0 0.00 0.00 0.00 87 1016.4
20180525030406 51 198 0.0 0.0 0.00 0.00 0.00 87 1016.4
20180525024637 51 198 0.0 0.0 0.00 0.00 0.00 87 1016.4
20180525022930 52 198 0.0 0.0 0.00 0.00 0.00 84 1016.4
20180525021324 53 198 0.0 0.0 0.00 0.00 0.00 83 1016.4
20180525015715 53 198 0.0 0.0 0.00 0.00 0.00 80 1016.5
20180525014006 54 198 0.0 0.0 0.00 0.00 0.00 77 1016.3
20180525012404 55 198 0.0 0.0 0.00 0.00 0.00 75 1016.2
20180525010711 57 198 0.0 0.0 0.00 0.00 0.00 71 1016.2
20180525005112 58 198 0.0 0.0 0.00 0.00 0.00 67 1016.3
20180525003507 60 198 0.0 0.0 0.00 0.00 0.00 64 1016.4
20180525001742 61 198 0.0 0.0 0.00 0.00 0.00 59 1016.3
20180525000107 63 198 0.0 0.0 0.00 0.00 0.00 57 1016.1
20180524234427 65 198 0.0 0.0 0.00 0.00 0.00 52 1016.0
20180524232718 66 198 0.0 0.0 0.00 0.00 0.00 46 1015.9
20180524231116 68 198 0.0 0.0 0.00 0.00 0.00 42 1016.0
20180524225506 71 198 0.0 3.0 0.00 0.00 0.00 37 1015.9
20180524223724 72 85 0.0 4.0 0.00 0.00 0.00 31 1016.0
20180524222124 72 58 0.0 4.0 0.00 0.00 0.00 31 1016.1
20180524220506 73 148 0.0 6.0 0.00 0.00 0.00 31 1016.2
20180524214819 74 322 0.0 3.0 0.00 0.00 0.00 35 1016.4
20180524213224 74 171 0.0 6.0 0.00 0.00 0.00 29 1016.4
20180524211606 74 196 1.0 4.0 0.00 0.00 0.00 29 1016.6
20180524205812 74 355 1.0 5.0 0.00 0.00 0.00 29 1016.8
20180524204218 74 242 1.0 7.0 0.00 0.00 0.00 28 1016.6
20180524202613 74 5 1.0 7.0 0.00 0.00 0.00 28 1016.6
20180524201006 73 162 1.0 6.0 0.00 0.00 0.00 30 1016.9
20180524193635 73 300 1.0 6.0 0.00 0.00 0.00 29 1017.2
20180524191926 72 302 1.0 8.0 0.00 0.00 0.00 26 1017.3
20180524190310 72 109 1.0 9.0 0.00 0.00 0.00 26 1017.3
20180524184710 72 338 2.0 9.0 0.00 0.00 0.00 26 1017.7
20180524183111 72 216 1.0 6.0 0.00 0.00 0.00 26 1017.4
20180524181325 72 294 1.0 8.0 0.00 0.00 0.00 29 1017.6
20180524175711 71 42 1.0 9.0 0.00 0.00 0.00 28 1017.5
20180524174106 71 355 3.0 10.0 0.00 0.00 0.00 30 1017.7
20180524172408 71 289 2.0 8.0 0.00 0.00 0.00 30 1017.8
20180524170910 71 111 1.0 9.0 0.00 0.00 0.00 30 1017.8
20180524165118 70 317 1.0 8.0 0.00 0.00 0.00 32 1018.1
20180524163518 70 324 0.0 10.0 0.00 0.00 0.00 31 1018.0
20180524161805 69 83 0.0 8.0 0.00 0.00 0.00 31 1018.3
20180524160306 69 105 1.0 6.0 0.00 0.00 0.00 32 1018.4
20180524154431 68 140 2.0 7.0 0.00 0.00 0.00 33 1018.4
20180524152826 68 32 3.0 7.0 0.00 0.00 0.00 30 1018.5
20180524151214 67 146 1.0 9.0 0.00 0.00 0.00 32 1018.4
20180524145507 66 344 3.0 7.0 0.00 0.00 0.00 32 1018.4
20180524143838 66 337 1.0 6.0 0.00 0.00 0.00 35 1018.3
20180524142229 65 355 0.0 10.0 0.00 0.00 0.00 35 1018.3
20180524140609 64 312 2.0 13.0 0.00 0.00 0.00 33 1018.3
20180524134916 63 273 3.0 9.0 0.00 0.00 0.00 31 1018.2
20180524133212 63 346 2.0 6.0 0.00 0.00 0.00 34 1018.1
20180524131604 62 24 2.0 6.0 0.00 0.00 0.00 37 1018.3
20180524125916 60 342 3.0 8.0 0.00 0.00 0.00 36 1018.3
20180524124234 59 253 3.0 9.0 0.00 0.00 0.00 42 1018.3
20180524122621 58 66 0.0 4.0 0.00 0.00 0.00 47 1018.0
20180524120908 57 207 1.0 3.0 0.00 0.00 0.00 48 1017.7
20180524115306 56 315 2.0 7.0 0.00 0.00 0.00 53 1017.8
20180524113632 55 62 0.0 3.0 0.00 0.00 0.00 59 1017.6
20180524111922 54 253 1.0 8.0 0.00 0.00 0.00 62 1017.7
20180524110304 51 344 1.0 5.0 0.00 0.00 0.00 71 1017.3
20180524104637 49 25 0.0 1.0 0.00 0.00 0.00 76 1017.0
20180524102920 48 25 0.0 5.0 0.00 0.00 0.00 85 1016.8
20180524101324 47 28 0.0 3.0 0.00 0.00 0.00 94 1016.4
20180524095618 45 29 0.0 1.0 0.00 0.00 0.00 96 1016.1
20180524093937 45 29 0.0 1.0 0.00 0.00 0.00 97 1015.8
20180524092335 44 29 0.0 1.0 0.00 0.00 0.00 97 1015.8
20180524090707 43 29 0.0 0.0 0.00 0.00 0.00 96 1015.6
20180524085029 44 29 0.0 0.0 0.00 0.00 0.00 96 1015.5
20180524083313 44 29 0.0 0.0 0.00 0.00 0.00 96 1015.3
20180524081706 45 29 0.0 0.0 0.00 0.00 0.00 96 1015.3
20180524080030 45 29 0.0 0.0 0.00 0.00 0.00 95 1015.2
20180524074505 46 29 0.0 0.0 0.00 0.00 0.00 95 1015.1
20180524072838 46 29 0.0 0.0 0.00 0.00 0.00 95 1015.0
20180524071114 47 29 0.0 0.0 0.00 0.00 0.00 95 1014.8
20180524065415 47 29 0.0 0.0 0.00 0.00 0.00 95 1014.7
20180524063733 48 29 0.0 0.0 0.00 0.00 0.00 94 1014.6
20180524062125 49 29 0.0 0.0 0.00 0.00 0.00 94 1014.5
20180524060508 49 29 0.0 0.0 0.00 0.00 0.00 94 1014.5
20180524054818 50 29 0.0 0.0 0.00 0.00 0.00 93 1014.5
20180524053206 51 29 0.0 0.0 0.00 0.00 0.00 93 1014.3